KB3MVG-13 Weather Reports


time (UTC)temp
C
wind
direction
speed
KPH
gust
KPH
rain 1hr
cm
rain 24hr
cm
rain mn
cm
humidity
%
barometer
mb
20260505052015 7 250 0.0 0.0 0.00 0.30 0.30 90 1015.8
20260505051015 7 250 0.0 0.0 0.03 0.30 0.30 89 1015.9
20260505041015 7 248 4.8 9.7 0.15 0.28 0.28 88 1016.1
20260505040017 7 347 0.0 0.0 0.18 0.28 0.28 87 1015.8
20260505035017 7 338 1.6 8.0 0.13 0.23 0.23 84 1015.1
20260505034037 7 338 11.3 17.7 0.10 0.20 0.20 82 1015.0
20260505033017 8 0 20.9 32.2 0.08 0.18 0.18 81 1015.1
20260505032017 8 0 22.5 33.8 0.05 0.15 0.15 81 1015.3
20260505031017 9 338 17.7 30.6 0.03 0.13 0.13 75 1014.9
20260505030016 10 0 17.7 25.7 0.00 0.10 0.10 70 1014.7
20260505025017 10 338 16.1 22.5 0.00 0.10 0.10 70 1014.7
20260505024017 10 338 14.5 22.5 0.00 0.10 0.10 69 1014.1
20260505023017 10 0 8.0 22.5 0.00 0.10 0.10 74 1014.4
20260505022017 10 246 0.0 0.0 0.00 0.10 0.10 77 1013.7
20260505021037 10 246 0.0 0.0 0.00 0.10 0.10 75 1013.2
20260505020057 10 246 0.0 0.0 0.00 0.10 0.10 75 1012.9
20260505015017 10 246 0.0 0.0 0.00 0.10 0.10 75 1012.9
20260505014017 10 246 0.0 0.0 0.00 0.10 0.10 77 1012.6
20260505013037 11 248 3.2 6.4 0.00 0.10 0.10 74 1012.4
20260505012016 11 293 1.6 8.0 0.08 0.10 0.10 73 1012.7
20260505011016 11 337 0.0 0.0 0.08 0.10 0.10 73 1012.6
20260505010057 11 337 0.0 0.0 0.10 0.10 0.10 72 1012.3
20260505005015 10 337 0.0 0.0 0.10 0.10 0.10 72 1011.9
20260505004017 10 338 8.0 14.5 0.10 0.10 0.10 67 1011.9
20260505003017 10 23 14.5 20.9 0.10 0.10 0.10 64 1012.3
20260505002016 11 0 14.5 30.6 0.03 0.03 0.03 58 1012.8
20260505001016 12 90 11.3 32.2 0.03 0.03 0.03 58 1013.0
20260505000017 13 0 9.7 16.1 0.00 0.00 0.00 41 1012.8
20260504235016 14 338 14.5 24.1 0.00 0.00 0.00 39 1011.7
20260504234017 14 338 16.1 24.1 0.00 0.00 0.00 39 1011.6
20260504233017 14 338 19.3 30.6 0.00 0.00 0.00 38 1011.4
20260504232016 14 338 20.9 27.4 0.00 0.00 0.00 39 1011.2
20260504231016 14 338 22.5 33.8 0.00 0.00 0.00 38 1011.7
20260504230017 15 338 22.5 40.2 0.00 0.00 0.00 35 1011.5
20260504225017 15 0 20.9 35.4 0.00 0.00 0.00 33 1011.2
20260504224036 15 338 25.7 38.6 0.00 0.00 0.00 35 1011.3
20260504223017 15 338 29.0 43.5 0.00 0.00 0.00 35 1010.7
20260504222036 15 338 29.0 53.1 0.00 0.00 0.00 33 1010.9
20260504221017 15 0 29.0 40.2 0.00 0.00 0.00 31 1010.8
20260504220016 16 0 27.4 48.3 0.00 0.00 0.00 29 1010.7
20260504215057 18 45 4.8 14.5 0.00 0.00 0.00 22 1011.0
20260504214057 18 90 4.8 14.5 0.00 0.00 0.00 22 1011.1
20260504213016 18 0 4.8 19.3 0.00 0.00 0.00 22 1011.0
20260504212016 18 0 3.2 12.9 0.00 0.00 0.00 22 1010.8
20260504211017 18 68 12.9 19.3 0.00 0.00 0.00 22 1011.3
20260504210017 20 90 4.8 12.9 0.00 0.00 0.00 21 1012.3
20260504205016 19 90 6.4 14.5 0.00 0.00 0.00 23 1012.1
20260504204017 18 315 6.4 14.5 0.00 0.00 0.00 24 1012.0
20260504203037 18 0 8.0 20.9 0.00 0.00 0.00 24 1012.3
20260504202016 17 0 11.3 22.5 0.00 0.00 0.00 26 1012.1
20260504201016 17 338 14.5 22.5 0.00 0.00 0.00 27 1012.4
20260504200016 16 338 11.3 20.9 0.00 0.00 0.00 27 1012.5
20260504195016 16 0 11.3 22.5 0.00 0.00 0.00 27 1011.8
20260504194016 16 45 12.9 25.7 0.00 0.00 0.00 28 1012.1
20260504193017 16 0 11.3 19.3 0.00 0.00 0.00 28 1012.0
20260504192036 16 0 16.1 24.1 0.00 0.00 0.00 29 1012.2
20260504191016 15 158 4.8 16.1 0.00 0.00 0.00 29 1012.8
20260504190017 15 158 14.5 29.0 0.00 0.00 0.00 31 1012.8
20260504185017 16 158 25.7 51.5 0.00 0.00 0.00 26 1012.9
20260504184016 17 158 14.5 41.8 0.00 0.00 0.00 28 1013.0
20260504183016 18 135 14.5 27.4 0.00 0.00 0.00 18 1013.1
20260504182017 19 113 6.4 14.5 0.00 0.00 0.00 19 1013.0
20260504181016 19 90 9.7 19.3 0.00 0.00 0.00 18 1013.3
20260504180016 20 338 4.8 16.1 0.00 0.00 0.00 16 1013.6
20260504175016 20 45 9.7 19.3 0.00 0.00 0.00 16 1013.7
20260504174016 20 45 4.8 12.9 0.00 0.00 0.00 16 1013.8
20260504173016 20 135 6.4 16.1 0.00 0.00 0.00 15 1014.1
20260504172017 20 248 6.4 11.3 0.00 0.00 0.00 16 1013.8
20260504171016 20 248 6.4 14.5 0.00 0.00 0.00 17 1014.3
20260504151016 17 0 12.9 22.5 0.00 0.00 0.00 19 1014.9
20260504141016 15 0 14.5 22.5 0.00 0.00 0.00 21 1014.3
20260504081016 11 161 0.0 0.0 0.00 0.00 0.00 27 1015.5